When you browse on this site, cookies collect data to enhance your experience and personalize the content and advertising you see.
Visit our Privacy Policy to learn more. By continuing to use the site, you agree to this use of cookies and data.
  • In United Kingdom
  • List of Countries
  • For 7 days
  • Water Temperature
  • Satellite Maps
  • Weather Map
  • Weather Widgets
  • user-avatar
    Login

    Hourly Weather Belfast

    Today, 19 May, Sunday

    Time Temperature Precipitation Wind Pressure Humidity
    00:00 +8°C° 0 mm 3 mps 755 mmHg 98%
    01:00 +8°C° 0 mm 3 mps 755 mmHg 97%
    02:00 +8°C° 0 mm 3 mps 755 mmHg 97%
    03:00 +8°C° 0 mm 3 mps 755 mmHg 97%
    04:00 +8°C° 0 mm 3 mps 755 mmHg 96%
    05:00 +8°C° 0 mm 3 mps 755 mmHg 96%
    06:00 +8°C° 0 mm 4 mps 755 mmHg 96%
    07:00 +10°C° 0 mm 4 mps 756 mmHg 94%
    08:00 +10°C° 0 mm 4 mps 756 mmHg 92%
    09:00 +11°C° 0 mm 4 mps 756 mmHg 90%
    10:00 +12°C° 0.1 mm 4 mps 756 mmHg 89%
    11:00 +12°C° 0.1 mm 3 mps 756 mmHg 88%
    12:00 +12°C° 0.1 mm 3 mps 757 mmHg 86%
    13:00 +13°C° 0.2 mm 3 mps 757 mmHg 85%
    14:00 +13°C° 0.2 mm 3 mps 757 mmHg 83%
    15:00 +14°C° 0.2 mm 3 mps 757 mmHg 81%
    16:00 +13°C° 0.3 mm 3 mps 757 mmHg 83%
    17:00 +13°C° 0.3 mm 3 mps 757 mmHg 84%
    18:00 +13°C° 0.3 mm 3 mps 757 mmHg 85%
    19:00 +11°C° 0 mm 3 mps 757 mmHg 88%
    20:00 +10°C° 0 mm 3 mps 757 mmHg 91%
    21:00 +8°C° 0 mm 3 mps 758 mmHg 94%
    22:00 +8°C° 0 mm 3 mps 758 mmHg 94%
    23:00 +7°C° 0 mm 3 mps 758 mmHg 95%

    Tomorrow, 20 May, Monday

    Time Temperature Precipitation Wind Pressure Humidity
    00:00 +5°C° 0 mm 3 mps 758 mmHg 95%
    01:00 +5°C° 0 mm 3 mps 758 mmHg 95%
    02:00 +5°C° 0 mm 3 mps 758 mmHg 95%
    03:00 +5°C° 0 mm 3 mps 758 mmHg 95%
    04:00 +5°C° 0 mm 3 mps 758 mmHg 95%
    05:00 +7°C° 0 mm 3 mps 758 mmHg 95%
    06:00 +7°C° 0 mm 3 mps 758 mmHg 94%
    07:00 +9°C° 0 mm 3 mps 759 mmHg 90%
    08:00 +11°C° 0 mm 4 mps 759 mmHg 85%
    09:00 +12°C° 0 mm 4 mps 759 mmHg 81%
    10:00 +13°C° 0.1 mm 4 mps 759 mmHg 79%
    11:00 +13°C° 0.1 mm 4 mps 759 mmHg 78%
    12:00 +13°C° 0.1 mm 4 mps 759 mmHg 76%
    13:00 +13°C° 0.2 mm 4 mps 759 mmHg 78%
    14:00 +13°C° 0.2 mm 4 mps 759 mmHg 79%
    15:00 +13°C° 0.2 mm 3 mps 760 mmHg 81%
    16:00 +13°C° 0 mm 4 mps 760 mmHg 80%
    17:00 +13°C° 0 mm 4 mps 760 mmHg 80%
    18:00 +13°C° 0 mm 5 mps 760 mmHg 79%
    19:00 +11°C° 0 mm 4 mps 760 mmHg 83%
    20:00 +8°C° 0 mm 4 mps 761 mmHg 88%
    21:00 +7°C° 0 mm 3 mps 761 mmHg 92%
    22:00 +7°C° 0 mm 3 mps 761 mmHg 93%
    23:00 +5°C° 0 mm 3 mps 762 mmHg 94%

    Day after tomorrow, 21 May, Tuesday

    Time Temperature Precipitation Wind Pressure Humidity
    00:00 +5°C° 0 mm 3 mps 762 mmHg 95%
    01:00 +4°C° 0 mm 3 mps 762 mmHg 95%
    02:00 +4°C° 0 mm 3 mps 762 mmHg 95%
    03:00 +4°C° 0 mm 3 mps 762 mmHg 96%
    04:00 +4°C° 0 mm 3 mps 762 mmHg 95%
    05:00 +5°C° 0 mm 3 mps 762 mmHg 94%
    06:00 +7°C° 0 mm 3 mps 762 mmHg 93%
    07:00 +8°C° 0 mm 3 mps 763 mmHg 86%
    08:00 +10°C° 0 mm 3 mps 763 mmHg 79%
    09:00 +12°C° 0 mm 3 mps 763 mmHg 72%
    10:00 +13°C° 0 mm 3 mps 763 mmHg 68%
    11:00 +13°C° 0 mm 3 mps 763 mmHg 64%
    12:00 +14°C° 0 mm 3 mps 763 mmHg 60%
    13:00 +15°C° 0 mm 2 mps 763 mmHg 62%
    14:00 +15°C° 0 mm 2 mps 763 mmHg 64%
    15:00 +15°C° 0 mm 2 mps 763 mmHg 66%
    16:00 +15°C° 0 mm 2 mps 763 mmHg 67%
    17:00 +15°C° 0 mm 2 mps 763 mmHg 69%
    18:00 +14°C° 0 mm 2 mps 763 mmHg 70%
    19:00 +12°C° 0 mm 2 mps 764 mmHg 76%
    20:00 +10°C° 0 mm 1 mps 764 mmHg 82%
    21:00 +9°C° 0 mm 1 mps 764 mmHg 88%
    22:00 +9°C° 0 mm 1 mps 764 mmHg 85%
    23:00 +9°C° 0 mm 1 mps 764 mmHg 82%

    22 May, Wednesday

    Time Temperature Precipitation Wind Pressure Humidity
    00:00 +9°C° 0 mm 1 mps 764 mmHg 78%
    01:00 +10°C° 0 mm 1 mps 764 mmHg 76%
    02:00 +10°C° 0 mm 1 mps 764 mmHg 74%
    03:00 +10°C° 0 mm 1 mps 763 mmHg 72%
    04:00 +11°C° 0 mm 1 mps 763 mmHg 74%
    05:00 +10°C° 0 mm 2 mps 763 mmHg 76%
    06:00 +10°C° 0 mm 2 mps 763 mmHg 79%
    07:00 +12°C° 0 mm 2 mps 763 mmHg 78%
    08:00 +12°C° 0 mm 3 mps 763 mmHg 78%
    09:00 +13°C° 0 mm 3 mps 763 mmHg 77%
    10:00 +14°C° 0 mm 3 mps 763 mmHg 77%
    11:00 +16°C° 0 mm 3 mps 763 mmHg 77%
    12:00 +16°C° 0 mm 3 mps 763 mmHg 77%
    13:00 +17°C° 0 mm 4 mps 762 mmHg 74%
    14:00 +17°C° 0 mm 4 mps 762 mmHg 72%
    15:00 +17°C° 0 mm 4 mps 762 mmHg 69%
    16:00 +17°C° 0 mm 4 mps 762 mmHg 71%
    17:00 +15°C° 0 mm 4 mps 761 mmHg 73%
    18:00 +15°C° 0 mm 4 mps 761 mmHg 75%
    19:00 +13°C° 0 mm 4 mps 761 mmHg 79%
    20:00 +12°C° 0 mm 3 mps 761 mmHg 82%
    21:00 +10°C° 0 mm 3 mps 761 mmHg 85%
    22:00 +10°C° 0 mm 3 mps 761 mmHg 85%
    23:00 +10°C° 0 mm 3 mps 761 mmHg 85%

    23 May, Thursday

    Time Temperature Precipitation Wind Pressure Humidity
    00:00 +9°C° 0 mm 3 mps 760 mmHg 85%
    01:00 +9°C° 0 mm 3 mps 760 mmHg 86%
    02:00 +9°C° 0 mm 3 mps 760 mmHg 86%
    03:00 +8°C° 0 mm 3 mps 759 mmHg 86%
    04:00 +9°C° 0.3 mm 3 mps 759 mmHg 89%
    05:00 +9°C° 0.3 mm 3 mps 759 mmHg 92%
    06:00 +9°C° 0.3 mm 2 mps 758 mmHg 95%
    07:00 +11°C° 0 mm 3 mps 758 mmHg 92%
    08:00 +12°C° 0 mm 4 mps 758 mmHg 88%
    09:00 +13°C° 0 mm 5 mps 758 mmHg 84%
    10:00 +13°C° 0.3 mm 5 mps 757 mmHg 87%
    11:00 +12°C° 0.3 mm 5 mps 757 mmHg 89%
    12:00 +10°C° 0.3 mm 5 mps 756 mmHg 92%
    13:00 +12°C° 0.2 mm 5 mps 756 mmHg 92%
    14:00 +12°C° 0.2 mm 5 mps 756 mmHg 92%
    15:00 +13°C° 0.2 mm 5 mps 755 mmHg 93%
    16:00 +13°C° 0.3 mm 4 mps 755 mmHg 94%
    17:00 +13°C° 0.3 mm 4 mps 754 mmHg 94%
    18:00 +13°C° 0.3 mm 4 mps 753 mmHg 95%
    19:00 +12°C° 0.8 mm 4 mps 753 mmHg 96%
    20:00 +12°C° 0.8 mm 3 mps 752 mmHg 97%
    21:00 +11°C° 0.8 mm 3 mps 752 mmHg 97%
    22:00 +11°C° 0.9 mm 4 mps 751 mmHg 97%
    23:00 +11°C° 0.9 mm 4 mps 750 mmHg 97%

    24 May, Friday

    Time Temperature Precipitation Wind Pressure Humidity
    00:00 +11°C° 0.9 mm 4 mps 750 mmHg 97%
    01:00 +10°C° 0.9 mm 5 mps 749 mmHg 96%
    02:00 +9°C° 0.9 mm 6 mps 749 mmHg 95%
    03:00 +9°C° 0.9 mm 6 mps 749 mmHg 95%
    04:00 +9°C° 0.3 mm 6 mps 749 mmHg 95%
    05:00 +9°C° 0.3 mm 6 mps 749 mmHg 94%
    06:00 +9°C° 0.3 mm 5 mps 749 mmHg 94%
    07:00 +10°C° 0.1 mm 5 mps 749 mmHg 93%
    08:00 +10°C° 0.1 mm 5 mps 749 mmHg 92%
    09:00 +12°C° 0.1 mm 5 mps 749 mmHg 91%
    10:00 +12°C° 0.1 mm 5 mps 749 mmHg 89%
    11:00 +13°C° 0.1 mm 5 mps 749 mmHg 88%
    12:00 +14°C° 0.1 mm 5 mps 750 mmHg 86%
    13:00 +14°C° 0.1 mm 6 mps 750 mmHg 82%
    14:00 +15°C° 0.1 mm 6 mps 750 mmHg 77%
    15:00 +16°C° 0.1 mm 7 mps 750 mmHg 73%
    16:00 +15°C° 0 mm 7 mps 751 mmHg 74%
    17:00 +14°C° 0 mm 7 mps 751 mmHg 76%
    18:00 +14°C° 0 mm 7 mps 751 mmHg 77%
    19:00 +11°C° 0 mm 6 mps 752 mmHg 82%
    20:00 +10°C° 0 mm 6 mps 752 mmHg 86%
    21:00 +9°C° 0 mm 5 mps 753 mmHg 90%
    22:00 +9°C° 0 mm 5 mps 753 mmHg 92%
    23:00 +9°C° 0 mm 5 mps 753 mmHg 93%
    Show more